sat.trackr.live / text

‹ back to catalog

IRIDE-MS1-EAGLET 2-10

NORAD 68451 · 2026-067AM

PAYLOAD ACTIVE UNKNOWN

§ Identity

Operator
Country
IT
Launch date
2026-03-30
Launch site
AFWTR
Launch vehicle
Mass (kg)
RCS (m²)

External: N2YO · Heavens-Above · Gunter

§ Orbital elements

Epoch: 2026-09-20T03:42:57.763872Z

Period
94.74 min
Inclination
97.4606°
Eccentricity
0.0003531
Mean motion
15.19961804 rev/d
Perigee alt
503.5 km
Apogee alt
508.4 km
Semi-major
6,884.1 km
B*
2.5703e-4
RAAN
220.4167°
Arg perigee
71.8067°
Mean anomaly
288.3552°
Rev number
2,636

§ Raw data

IRIDE-MS1-EAGLET 2-101 68451U 26067AM  26263.15483523  .00005462  00000+0  25703-3 0  99912 68451  97.4606 220.4167 0003531  71.8067 288.3552 15.19961804 26365

JSON: /api/v1/satellites/68451 · /tle

For live sub-satellite position, see the globe view (requires WebGL).

§ Visibility from observer

Set your observer location to see the next 7 days of passes ≥ 10°. The values pass through the URL so the page stays shareable.

No JS? Fill the form by hand. The geolocation button needs JavaScript.